Regional Weather Roundup
Issued by NWS

Home | Current Version | Previous Version | Graphics & Text | Print | Product List | Glossary On
Versions: 1 2 3 4 5 6 7 8 9 10 11 12 13 14 15 16 17 18 19 20 21 22 23 24 25 26 27 28 29 30 31 32 33 34 35 36 37 38 39 40 41 42 43 44 45 46 47 48 49 50
976
ASUS44 KJAN 201803
RWRMS

MISSISSIPPI HOURLY WEATHER ROUNDUP
NATIONAL WEATHER SERVICE JACKSON MS
100 PM CDT MON OCT 20 2014

NOTE: "FAIR: INDICATES FEW OR NO CLOUDS BELOW 12,000 FEET WITH NO
SIGNIFICANT WEATHER AND/OR OBSTRUCTIONS TO VISIBILITY.

MSZ001>002-007>008-010>013-018>021-025>028-034>036-201900-
NORTHWEST MISSISSIPPI

CITY           SKY/WX    TMP DP  RH WIND       PRES   REMARKS
CLARKSDALE     CLOUDY    70  48  46 CALM      30.08F
CLEVELAND      FAIR      69  51  52 CALM      30.07F
GREENWOOD      SUNNY     73  50  44 VRB3      30.07F
6HR MIN TEMP:  46; 6HR MAX TEMP:  73;

GREENVILLE     SUNNY     71  49  45 SW6       30.08F
6HR MIN TEMP:  45; 6HR MAX TEMP:  71;

GRENADA          N/A    N/A N/A N/A MISG        N/A
OXFORD         FAIR      66  48  52 NW8       30.09F
TUNICA         CLEAR     68  50  52 SW7       30.08F
$$

MSZ003>006-009-014>017-022>024-029>033-037>039-201900-
NORTHEAST MISSISSIPPI

CITY           SKY/WX    TMP DP  RH WIND       PRES   REMARKS
COLUMBUS AFB   SUNNY     71  47  43 N2        30.06F
6HR MIN TEMP:  41; 6HR MAX TEMP:  71;

CORINTH        FAIR      68  46  45 VRB3        N/A
TUPELO         SUNNY     70  49  47 NW5       30.06F
6HR MIN TEMP:  43; 6HR MAX TEMP:  71;

$$

MSZ040-058-201900-
CENTRAL MISSISSIPPI

CITY           SKY/WX    TMP DP  RH WIND       PRES   REMARKS
JACKSON INTL   MOSUNNY   74  47  38 W6        30.07F
6HR MIN TEMP:  43; 6HR MAX TEMP:  75;

JACKSON HAWKNS MOSUNNY   74  48  39 VRB7      30.08F
6HR MIN TEMP:  47; 6HR MAX TEMP:  74;

MERIDIAN KEY   SUNNY     73  48  41 MISG      30.06F
6HR MIN TEMP:  42; 6HR MAX TEMP:  73;

MERIDIAN NAS   MOSUNNY   73  45  36 N5        30.07F
6HR MIN TEMP:  42; 6HR MAX TEMP:  73;

RAYMOND        FAIR      73  68  83 NW7       30.08F
VICKSBURG      MOSUNNY   73  49  42 VRB6      30.08F
6HR MIN TEMP:  41; 6HR MAX TEMP:  73;

$$

MSZ059>079-201900-
SOUTH MISSISSIPPI

CITY           SKY/WX    TMP DP  RH WIND       PRES   REMARKS
BROOKHAVEN     FAIR      72  48  43 CALM      30.08F
COLUMBIA         N/A    N/A N/A N/A MISG        N/A
HATTIESBURG    MOSUNNY   73  48  41 N6        30.06F
6HR MIN TEMP:  45; 6HR MAX TEMP:  74;

MCCOMB         MOSUNNY   73  48  41 N5        30.06F
6HR MIN TEMP:  48; 6HR MAX TEMP:  73;

NATCHEZ        MOSUNNY   72  52  49 N7        30.07F
6HR MIN TEMP:  45; 6HR MAX TEMP:  72;

PINE BELT      MOSUNNY   73  48  40 CALM      30.08F
6HR MIN TEMP:  43; 6HR MAX TEMP:  73;

$$

MSZ080>082-201900-
COASTAL MISSISSIPPI

CITY           SKY/WX    TMP DP  RH WIND       PRES   REMARKS
BAY ST LOUIS   SUNNY     75  46  35 VRB5      30.05F
BILOXI         SUNNY     78  52  39 N5        30.03F
6HR MIN TEMP:  52; 6HR MAX TEMP:  78;

PASCAGOULA     SUNNY     77  51  40 CALM      30.03F
6HR MIN TEMP:  45; 6HR MAX TEMP:  78;

GULFPORT       SUNNY     76  49  38 VRB3      30.03F
6HR MIN TEMP:  53; 6HR MAX TEMP:  77;

$$



USA.gov is the U.S. government's official web portal to all federal, state and local government web resources and services.